[[{"header":{"parameterUnit":"m.s-1","parameterCategory":1,"la1":30.2991,"la2":30.254,"lo1":-89.0895,"lo2":-89.0444,"dy":0.0017,"dx":0.0017,"nx":28,"ny":28,"refTime":"2025-01-25T03:00:00:Z","depth":0,"parameterNumber":2,"parameterNumberName":"U-component_of_WINDS"},"data":[0,0,0,0,0,0,0,0,0,0,0,0,0,0,0,0,0,0,0,0,0,0,0,0,0,0,0,0,0,0,0,0,0,0,0,0,0,0,0,0,0,0,0,0,0,0,0,0,0,0,0,0,0,0,0,0,0,0,-2.7074,-2.7075,0,-2.7203,-2.7205,-2.7206,-2.7203,-2.7201,-2.7199,-2.7197,-2.7332,-2.7337,-2.7342,0,0,0,0,0,0,0,0,0,0,0,0,0,-2.6822,-2.6827,-2.7073,-2.7075,-2.7077,-2.7203,-2.7205,-2.7207,-2.7203,-2.7201,-2.7199,-2.7197,-2.733,-2.7336,-2.7343,0,0,0,0,0,0,0,0,0,0,0,0,0,-2.694,-2.6828,-2.7073,-2.709,-2.7093,-2.7203,-2.7205,-2.7207,-2.7203,-2.7201,-2.7198,-2.7196,-2.7328,-2.7336,-2.7344,-2.7446,0,0,-2.7368,-2.7371,0,0,0,0,0,0,0,0,-2.6933,-2.6949,-2.7086,-2.7089,-2.7092,-2.7184,-2.7166,-2.7287,-2.7204,-2.7162,-2.7197,-2.7194,-2.7285,-2.7296,-2.7327,-2.7452,-2.7458,-2.7368,-2.7373,-2.7376,-2.7379,0,0,0,0,0,0,0,-2.6925,-2.6943,-2.7125,-2.7088,-2.7092,-2.7091,-2.7105,-2.7189,-2.7237,-2.7165,-2.7165,-2.718,-2.7286,-2.7319,-2.733,-2.746,-2.7368,-2.7375,-2.738,-2.7383,-2.7673,-2.7675,0,0,0,0,0,0,-2.6913,-2.6936,-2.7121,-2.7129,-2.7004,-2.7098,-2.7113,-2.7157,-2.7236,-2.7245,-2.7183,-2.718,-2.7307,-2.732,-2.7334,-2.7457,-2.7376,-2.7384,-2.7388,-2.767,-2.7673,-2.7676,0,0,0,0,0,0,-2.6908,-2.6929,-2.7115,-2.7033,-2.7056,-2.7105,-2.7155,-2.7161,-2.7194,-2.7249,-2.7258,-2.7207,-2.7305,-2.7323,-2.7417,-2.7462,-2.7387,-2.7395,-2.7666,-2.7671,-2.7675,-2.7704,0,0,0,0,0,0,-2.69,-2.6928,-2.6967,-2.7034,-2.7061,-2.7196,-2.7157,-2.7166,-2.7207,-2.7205,-2.7274,-2.7283,-2.7305,-2.7406,-2.7425,-2.7471,-2.7401,-2.7662,-2.7668,-2.7673,-2.7699,-2.7709,-2.7717,0,0,0,0,0,-2.6891,-2.6971,-2.6969,-2.6991,-2.7111,-2.7199,-2.7214,-2.7237,-2.7211,-2.7251,-2.7286,-2.7281,-2.7454,-2.7415,-2.7437,-2.7486,-2.766,-2.7666,-2.7673,-2.7695,-2.7707,-2.7717,0,0,0,0,0,0,-2.691,-2.698,-2.6979,-2.7082,-2.7134,-2.7198,-2.7249,-2.7249,-2.731,-2.7305,-2.7331,-2.7347,-2.744,-2.7473,-2.7429,-2.7588,-2.7553,-2.7565,-2.7563,-2.7575,-2.7583,-2.7573,-2.7407,0,0,0,0,0,-2.6926,-2.6991,-2.7049,-2.7135,-2.7161,-2.72,-2.724,-2.7252,-2.7308,-2.733,-2.7372,-2.7426,-2.7492,-2.7535,-2.76,-2.7704,-2.7718,-2.7749,-2.7758,-2.7765,-2.7774,-2.7829,-2.7843,-2.7698,-2.7698,-2.7698,0,0,-2.696,-2.7006,-2.7046,-2.714,-2.7182,-2.7248,-2.7219,-2.7292,-2.7341,-2.7341,-2.7431,-2.7464,-2.7526,-2.7625,-2.7671,-2.7655,-2.7817,-2.7773,-2.7778,-2.7784,-2.7837,-2.7851,-2.7863,-2.7703,-2.7702,-2.7701,0,0,-2.7055,-2.7097,-2.7172,-2.7214,-2.7277,-2.7303,-2.7321,-2.7384,-2.7405,-2.7496,-2.7497,-2.7556,-2.7671,-2.7714,-2.7751,-2.786,-2.7857,-2.788,-2.7927,-2.798,-2.7992,-2.8002,-2.8039,-2.8052,-2.789,-2.789,-2.789,0,-2.7089,-2.7189,-2.7211,-2.7283,-2.7323,-2.7325,-2.74,-2.744,-2.7522,-2.7549,-2.753,-2.7672,-2.7714,-2.7822,-2.7848,-2.7879,-2.7899,-2.7872,-2.7988,-2.7999,-2.8008,-2.8044,-2.8058,-2.7892,-2.7892,-2.7891,-2.7891,0,-2.7227,-2.7296,-2.7349,-2.7426,-2.7472,-2.7546,-2.7578,-2.7622,-2.763,-2.7657,-2.7749,-2.7799,-2.7872,-2.7899,-2.7909,-2.8008,-2.7996,-2.7983,-2.7948,-2.8024,-2.8058,-2.8072,-2.7895,-2.7894,-2.7894,-2.7893,0,0,-2.7338,-2.7424,-2.7443,-2.7477,-2.7546,-2.76,-2.7673,-2.7743,-2.778,-2.7836,-2.7896,-2.7992,-2.7979,-2.8021,-2.8035,-2.8082,-2.8162,-2.8062,-2.8064,-2.8077,-2.8272,-2.8281,-2.8296,-2.8161,-2.8164,-2.8166,-2.8266,0,-2.7439,-2.7567,-2.7588,-2.7701,-2.7764,-2.7765,-2.7829,-2.7877,-2.7904,-2.7962,-2.7992,-2.8058,-2.8037,-2.8062,-2.8109,-2.8142,-2.8201,-2.8136,-2.8217,-2.8219,-2.82,-2.8314,-2.8324,-2.8416,-2.828,-2.8282,-2.8284,0,-2.7574,-2.7631,-2.775,-2.7808,-2.7835,-2.7891,-2.7956,-2.8012,-2.8066,-2.8083,-2.8128,-2.8136,-2.8211,-2.8174,-2.8276,-2.8231,-2.8265,-2.8286,-2.829,-2.8298,-2.8255,-2.8323,-2.8447,-2.8459,-2.8305,-2.8303,-2.8302,0,-2.764,-2.7747,-2.7831,-2.7861,-2.7931,-2.797,-2.8001,-2.8054,-2.8094,-2.8151,-2.8177,-2.8242,-2.8278,-2.8328,-2.8353,-2.8324,-2.8453,-2.8418,-2.8467,-2.8467,-2.8494,-2.8491,-2.8622,-2.8518,-2.8518,-2.8518,-2.8518,0,-2.775,-2.7822,-2.7862,-2.7913,-2.7993,-2.8016,-2.8095,-2.8125,-2.8171,-2.8228,-2.8234,-2.8288,-2.8318,-2.8376,-2.8396,-2.8476,-2.8493,-2.8507,-2.8511,-2.8506,-2.8503,-2.8528,-2.8521,-2.8522,-2.8521,-2.852,-2.852,0,-2.7837,-2.7867,-2.7958,-2.8017,-2.8033,-2.8089,-2.8139,-2.8189,-2.8215,-2.8287,-2.8305,-2.8346,-2.8414,-2.8444,-2.8528,-2.8542,-2.8633,-2.8633,-2.8614,-2.8615,-2.8661,-2.8655,-2.8811,-2.8832,-2.8716,-2.8717,-2.8718,0,-2.7904,-2.7959,-2.8023,-2.8061,-2.8093,-2.8155,-2.8195,-2.8219,-2.8261,-2.8327,-2.8368,-2.8436,-2.8491,-2.8599,-2.8637,-2.8701,-2.8701,-2.8752,-2.8711,-2.8703,-2.87,-2.8695,-2.87,-2.8758,-2.876,-2.8761,-2.8761,0,-2.8019,-2.8031,-2.8089,-2.8151,-2.8199,-2.825,-2.8299,-2.833,-2.8362,-2.8409,-2.8478,-2.852,-2.8605,-2.8672,-2.8738,-2.877,-2.877,-2.8774,-2.8788,-2.8782,-2.8767,-2.8774,-2.8632,-2.877,-2.8769,-2.8768,-2.8768,-2.8768,-2.8097,-2.8145,-2.8197,-2.826,-2.83,-2.8346,-2.8394,-2.8426,-2.8483,-2.8553,-2.8564,-2.8637,-2.8689,-2.8777,-2.8811,-2.8868,-2.8856,-2.8877,-2.8882,-2.8887,-2.8888,-2.876,-2.8881,-2.8881,-2.888,-2.888,-2.888,0,-2.8211,-2.8243,-2.8302,-2.837,-2.842,-2.8416,-2.847,-2.8512,-2.8575,-2.8623,-2.8677,-2.8755,-2.8819,-2.8861,-2.8925,-2.8963,-2.8964,-2.8979,-2.8975,-2.8982,-2.8897,-2.8877,-2.8976,-2.8976,-2.8976,-2.8976,-2.8976,-2.8976,-2.8275,-2.8355,-2.8373,-2.8472,-2.8504,-2.8575,-2.8606,-2.8647,-2.8685,-2.8772,-2.8825,-2.8851,-2.8896,-2.8964,-2.9022,-2.9032,-2.9055,-2.907,-2.9079,-2.8999,-2.8988,-2.8979,-2.896,-2.9075,-2.9075,-2.9159,-2.916,-2.9161]},{"header":{"parameterUnit":"m.s-1","parameterCategory":1,"la1":30.2991,"la2":30.254,"lo1":-89.0895,"lo2":-89.0444,"dy":0.0017,"dx":0.0017,"nx":28,"ny":28,"refTime":"2025-01-25T03:00:00:Z","depth":0,"parameterNumber":3,"parameterNumberName":"V-component_of_WINDS"},"data":[0,0,0,0,0,0,0,0,0,0,0,0,0,0,0,0,0,0,0,0,0,0,0,0,0,0,0,0,0,0,0,0,0,0,0,0,0,0,0,0,0,0,0,0,0,0,0,0,0,0,0,0,0,0,0,0,0,0,0.4653,0.4655,0,0.4892,0.4895,0.4898,0.4957,0.4955,0.4953,0.4952,0.5204,0.5212,0.522,0,0,0,0,0,0,0,0,0,0,0,0,0,0.4253,0.426,0.4652,0.4655,0.4658,0.4892,0.4895,0.4898,0.4957,0.4955,0.4953,0.4951,0.5201,0.5211,0.5221,0,0,0,0,0,0,0,0,0,0,0,0,0,0.4453,0.4263,0.4652,0.4715,0.4724,0.4891,0.4895,0.4899,0.4957,0.4955,0.4952,0.495,0.5198,0.521,0.5222,0.5345,0,0,0.5259,0.5265,0,0,0,0,0,0,0,0,0.4442,0.4468,0.4703,0.4711,0.4721,0.4892,0.4847,0.5049,0.4958,0.4869,0.4952,0.4949,0.5102,0.5122,0.5173,0.5357,0.5368,0.5261,0.5268,0.5273,0.5277,0,0,0,0,0,0,0,0.4428,0.4458,0.4747,0.4707,0.4717,0.4735,0.476,0.4885,0.4996,0.4876,0.4881,0.4908,0.5107,0.5161,0.5179,0.5371,0.526,0.5271,0.5279,0.5283,0.5672,0.5675,0,0,0,0,0,0,0.4402,0.4446,0.474,0.4755,0.4572,0.4744,0.4773,0.4839,0.4995,0.5016,0.491,0.491,0.5141,0.5165,0.5188,0.5346,0.5273,0.5285,0.5292,0.5669,0.5673,0.5676,0,0,0,0,0,0,0.4393,0.4428,0.473,0.4602,0.4641,0.4753,0.4828,0.4845,0.4899,0.502,0.5041,0.4944,0.514,0.5171,0.5306,0.5355,0.529,0.5301,0.5666,0.5671,0.5675,0.5659,0,0,0,0,0,0,0.4381,0.4424,0.447,0.4602,0.4648,0.4842,0.4831,0.4852,0.492,0.4922,0.5058,0.5078,0.5141,0.5287,0.5318,0.5371,0.5311,0.5662,0.5668,0.5673,0.5656,0.5662,0.5668,0,0,0,0,0,0.4367,0.4457,0.4472,0.4507,0.4708,0.4844,0.4871,0.4939,0.4923,0.4972,0.505,0.5074,0.5344,0.5301,0.5336,0.5393,0.5659,0.5666,0.5673,0.5653,0.5661,0.5668,0,0,0,0,0,0,0.433,0.4475,0.4494,0.4628,0.4723,0.4854,0.4917,0.4945,0.5047,0.5046,0.5127,0.5158,0.5288,0.5354,0.5303,0.5522,0.5502,0.5516,0.5475,0.5483,0.5489,0.5472,0.5321,0,0,0,0,0,0.4336,0.4433,0.4556,0.4663,0.4709,0.4805,0.4867,0.4911,0.5013,0.5055,0.5142,0.5243,0.5351,0.542,0.5526,0.5664,0.5697,0.5721,0.5727,0.5732,0.5744,0.5826,0.5839,0.5698,0.5698,0.5698,0,0,0.4353,0.4444,0.4501,0.4658,0.4737,0.4838,0.4838,0.4945,0.5022,0.5071,0.5205,0.5272,0.539,0.5528,0.5594,0.5587,0.579,0.574,0.5743,0.5753,0.5834,0.5848,0.5859,0.5703,0.5702,0.5701,0,0,0.4435,0.4512,0.4611,0.469,0.4808,0.4872,0.4895,0.5022,0.5069,0.5203,0.5244,0.5337,0.552,0.5603,0.5669,0.5784,0.5812,0.5816,0.585,0.5928,0.594,0.595,0.5995,0.6009,0.5827,0.5827,0.5827,0,0.4441,0.4593,0.4659,0.4765,0.4834,0.4881,0.4985,0.5058,0.5206,0.5255,0.5244,0.5476,0.5559,0.5719,0.5747,0.5797,0.583,0.5802,0.5932,0.5943,0.5954,0.5997,0.6014,0.5827,0.5827,0.5827,0.5827,0,0.4596,0.4701,0.4767,0.4907,0.4984,0.5087,0.5173,0.5243,0.528,0.5345,0.5483,0.5583,0.5712,0.5752,0.579,0.5919,0.5911,0.5915,0.5898,0.5966,0.6009,0.6026,0.5827,0.5827,0.5827,0.5827,0,0,0.4663,0.4838,0.4862,0.4928,0.5062,0.5146,0.5252,0.5376,0.5436,0.5536,0.5631,0.5784,0.5789,0.5865,0.5912,0.5981,0.607,0.5977,0.5982,0.5994,0.6222,0.6221,0.6239,0.6087,0.609,0.6093,0.6214,0,0.4765,0.4955,0.5019,0.5178,0.5278,0.5324,0.5418,0.5512,0.5576,0.5672,0.5743,0.5852,0.5848,0.5895,0.5964,0.6044,0.6117,0.6036,0.618,0.6184,0.6152,0.6261,0.6259,0.6368,0.623,0.6233,0.6235,0,0.4909,0.501,0.5179,0.5303,0.5347,0.5429,0.5549,0.5639,0.5748,0.579,0.5873,0.5916,0.6033,0.6005,0.617,0.6113,0.6175,0.6223,0.6229,0.6248,0.6216,0.6286,0.6404,0.6422,0.6261,0.6259,0.6257,0,0.4945,0.5124,0.5248,0.5302,0.5449,0.5507,0.5571,0.5677,0.5748,0.5853,0.5901,0.6018,0.6084,0.6175,0.625,0.6222,0.6409,0.6387,0.645,0.6449,0.649,0.6487,0.6624,0.6524,0.6524,0.6523,0.6523,0,0.5054,0.5156,0.5267,0.5344,0.5461,0.5534,0.5649,0.5716,0.5811,0.5904,0.5951,0.6039,0.613,0.623,0.6289,0.6418,0.6446,0.6486,0.6501,0.6484,0.648,0.6529,0.6525,0.6528,0.6527,0.6526,0.6525,0,0.5116,0.5193,0.5333,0.546,0.5495,0.5576,0.5686,0.5765,0.5829,0.5947,0.5979,0.6083,0.6203,0.6286,0.644,0.648,0.6621,0.6633,0.6584,0.6592,0.6653,0.6647,0.6829,0.6858,0.6734,0.6735,0.6736,0,0.5182,0.5262,0.5397,0.5462,0.5526,0.563,0.5702,0.5778,0.5852,0.5983,0.6046,0.6169,0.6272,0.6463,0.6553,0.6673,0.6691,0.6746,0.6709,0.669,0.6697,0.6692,0.6703,0.6753,0.6754,0.6754,0.6755,0,0.5293,0.5327,0.5428,0.5544,0.5629,0.5724,0.582,0.5871,0.5963,0.6045,0.6167,0.6247,0.6404,0.6528,0.6655,0.6725,0.6758,0.6765,0.6787,0.6772,0.6742,0.6763,0.6604,0.6762,0.6761,0.676,0.676,0.676,0.5362,0.5436,0.5543,0.5655,0.5735,0.5823,0.5904,0.5979,0.6082,0.6215,0.6253,0.6382,0.6492,0.6666,0.6738,0.6842,0.6837,0.6868,0.6876,0.6884,0.6886,0.6722,0.6865,0.6865,0.6865,0.6864,0.6864,0,0.5478,0.5549,0.5651,0.5783,0.5872,0.5891,0.5999,0.6073,0.6185,0.6283,0.6383,0.6525,0.6645,0.6745,0.6869,0.6934,0.6952,0.6964,0.6963,0.6979,0.688,0.6851,0.6948,0.6948,0.6948,0.6948,0.6948,0.6948,0.5549,0.5677,0.5724,0.5893,0.5964,0.6089,0.615,0.6233,0.6312,0.6468,0.6567,0.663,0.6731,0.6863,0.6975,0.7002,0.7047,0.7057,0.7088,0.6995,0.6985,0.6976,0.6949,0.7065,0.7065,0.7178,0.7179,0.718]}]]